TimeEDT,TemperatureF,Dew PointF,Humidity,Sea Level PressureIn,VisibilityMPH,Wind Direction,Wind SpeedMPH,Gust SpeedMPH,PrecipitationIn,Events,Conditions,WindDirDegrees,DateUTC
12:53 AM,81.0,73.9,79,30.10,10.0,ESE,9.2,-,N/A,,Scattered Clouds,120,2013-07-16 04:53:00
1:53 AM,80.1,75.0,85,30.09,10.0,SE,11.5,-,N/A,,Mostly Cloudy,130,2013-07-16 05:53:00
2:53 AM,80.1,75.0,85,30.08,10.0,ESE,13.8,-,N/A,,Clear,120,2013-07-16 06:53:00
3:53 AM,79.0,75.0,88,30.07,10.0,SE,13.8,-,N/A,,Clear,130,2013-07-16 07:53:00
4:53 AM,80.1,75.0,85,30.07,10.0,ESE,13.8,-,N/A,,Clear,110,2013-07-16 08:53:00
5:53 AM,79.0,75.9,90,30.08,10.0,East,16.1,-,N/A,,Partly Cloudy,100,2013-07-16 09:53:00
6:53 AM,80.1,75.0,85,30.10,10.0,East,15.0,-,N/A,,Clear,100,2013-07-16 10:53:00
7:53 AM,81.0,75.9,85,30.11,10.0,East,15.0,-,N/A,,Clear,100,2013-07-16 11:53:00
8:53 AM,82.0,75.9,82,30.12,10.0,East,16.1,-,N/A,,Clear,90,2013-07-16 12:53:00
9:53 AM,82.9,73.9,74,30.12,10.0,ESE,11.5,-,N/A,,Partly Cloudy,110,2013-07-16 13:53:00
10:53 AM,84.9,73.9,69,30.14,10.0,ESE,13.8,-,N/A,,Partly Cloudy,110,2013-07-16 14:53:00
11:53 AM,87.1,73.9,65,30.14,10.0,ESE,12.7,-,N/A,,Clear,110,2013-07-16 15:53:00
12:53 PM,87.1,75.0,67,30.12,10.0,East,15.0,-,N/A,,Clear,90,2013-07-16 16:53:00
1:53 PM,90.0,73.9,59,30.11,10.0,East,12.7,-,N/A,,Partly Cloudy,100,2013-07-16 17:53:00
2:53 PM,82.0,73.0,74,30.10,10.0,SSE,29.9,38.0,N/A,,Mostly Cloudy,150,2013-07-16 18:53:00
3:00 PM,81.0,75.0,82,30.14,5.0,SE,36.8,44.9,0.00,Rain,Light Rain,130,2013-07-16 19:00:00
3:11 PM,78.1,75.0,90,30.16,2.5,ESE,29.9,42.6,0.05,Rain,Rain,120,2013-07-16 19:11:00
3:17 PM,77.0,75.0,94,30.15,1.0,SE,26.5,39.1,0.20,Rain,Heavy Rain,130,2013-07-16 19:17:00
3:24 PM,77.0,75.0,94,30.13,0.8,SE,24.2,34.5,0.30,Rain,Heavy Rain,140,2013-07-16 19:24:00
3:31 PM,77.0,75.0,94,30.13,2.0,SSE,23.0,31.1,0.30,Rain,Light Rain,150,2013-07-16 19:31:00
3:36 PM,77.0,75.0,94,30.13,10.0,SE,20.7,-,0.30,,Mostly Cloudy,140,2013-07-16 19:36:00
3:53 PM,78.1,75.0,90,30.12,10.0,SE,16.1,-,0.30,,Scattered Clouds,130,2013-07-16 19:53:00
4:53 PM,79.0,73.0,82,30.12,10.0,East,17.3,-,0.00,Rain,Light Rain,100,2013-07-16 20:53:00
5:53 PM,79.0,73.9,84,30.11,10.0,East,16.1,-,0.00,,Partly Cloudy,80,2013-07-16 21:53:00
6:53 PM,79.0,73.9,84,30.11,10.0,East,10.4,-,N/A,,Clear,90,2013-07-16 22:53:00
7:53 PM,79.0,73.9,84,30.12,10.0,East,15.0,-,N/A,,Clear,90,2013-07-16 23:53:00
8:53 PM,79.0,73.9,84,30.13,10.0,East,13.8,-,N/A,,Clear,100,2013-07-17 00:53:00
9:53 PM,79.0,75.0,88,30.14,10.0,East,15.0,-,N/A,,Clear,90,2013-07-17 01:53:00
10:53 PM,79.0,75.0,88,30.14,10.0,East,16.1,-,N/A,,Clear,90,2013-07-17 02:53:00
11:53 PM,79.0,75.0,88,30.14,10.0,East,12.7,-,N/A,,Clear,90,2013-07-17 03:53:00